Wind_Speed
3 2 1 1 1 0 2 1 0 1 1 2 2 2 3 3 4 4 5 5 4 4 4 4 4 3 3 3 3 2 2 2 2 2 2 1 2 2 2 2 2 2 2 2 3 3 3 3 2
4 3 2 2 2 2 3 3 2 1 1 1 2 2 2 2 3 4 5 5 5 4 4 4 3 3 3 2 2 2 1 1 1 2 1 1 1 1 1 1 1 1 2 3 3 3 3 3 3
6 4 3 2 3 4 5 4 3 1 1 1 1 2 2 2 3 4 4 4 5 5 4 4 4 3 3 2 2 2 1 1 1 1 1 0 0 0 0 1 2 2 2 3 4 4 4 4 4
7 5 4 3 5 5 5 5 4 3 3 2 2 3 3 3 3 3 4 5 5 5 4 4 4 4 3 3 3 2 2 2 1 1 1 1 1 1 1 2 3 3 4 4 4 5 5 5 4
7 5 5 6 6 6 6 6 5 4 5 4 3 3 3 3 2 3 4 4 5 5 5 5 5 5 5 4 4 3 2 2 1 2 2 2 2 2 3 3 4 4 5 5 6 5 5 5 5
8 6 6 7 7 7 7 6 6 5 6 5 4 4 4 3 3 3 4 4 4 5 5 6 6 6 6 6 5 4 3 2 2 2 3 3 3 3 4 5 4 5 5 6 7 6 6 6 6
8 8 8 8 8 8 7 7 7 6 6 6 6 5 4 4 4 4 4 5 5 6 6 6 7 7 7 6 5 3 4 3 2 3 3 3 4 4 4 5 4 5 6 6 7 6 6 7 7
9 9 10 10 10 9 9 8 8 7 6 7 7 6 5 5 5 4 5 5 6 6 6 6 7 7 7 6 5 4 4 4 4 4 4 4 4 4 4 4 4 4 5 6 7 7 7 7 7
11 10 11 11 12 11 10 10 9 9 8 8 8 7 6 6 5 5 6 6 6 7 7 6 7 7 7 6 5 5 5 5 5 5 5 5 6 6 6 6 5 5 6 7 8 8 8 8 8
12 12 13 12 13 12 11 11 11 10 9 9 9 9 8 7 6 6 7 7 7 7 7 7 7 8 7 7 6 6 5 5 5 6 6 6 6 6 6 7 6 6 6 7 8 8 9 9 9
13 13 13 13 13 13 12 12 12 11 11 10 10 10 10 9 8 8 7 7 8 8 8 7 8 8 8 8 8 6 5 5 5 6 7 6 6 6 6 7 7 6 7 7 8 9 9 10 9
14 13 14 14 14 13 13 12 12 12 12 12 11 11 10 10 9 8 8 8 9 9 8 8 8 8 9 9 8 8 7 7 6 7 7 7 7 7 7 7 7 8 8 8 9 10 9 10 10
15 14 14 15 14 14 13 13 13 13 12 12 12 11 11 10 10 10 9 10 9 9 9 8 8 9 9 10 10 9 9 8 8 7 8 8 8 8 8 8 8 8 9 9 10 10 10 10 10
16 15 15 15 15 14 14 13 13 12 13 13 12 12 11 11 11 11 10 10 10 9 9 9 9 9 10 10 10 10 10 9 8 9 9 9 9 9 9 10 10 9 10 10 11 11 11 11 11
17 16 16 16 16 16 15 14 14 13 13 13 13 13 12 11 11 12 12 11 10 10 10 10 10 10 11 11 10 11 11 11 11 11 10 10 10 10 11 11 11 11 11 11 12 12 12 12 12
18 17 17 17 17 16 15 15 15 14 14 14 14 13 12 12 12 12 12 12 11 11 11 10 11 11 12 12 11 12 12 11 11 12 11 11 11 11 11 12 12 12 12 12 12 12 12 12 12
19 18 19 20 18 17 16 16 15 15 16 15 15 14 13 13 13 13 13 13 13 12 11 11 11 12 12 13 12 11 11 11 11 11 12 12 12 12 12 12 13 13 13 13 14 14 13 13 13
20 19 19 20 19 18 17 16 16 17 17 17 17 16 16 15 14 14 14 14 14 14 13 12 12 12 13 13 12 12 12 13 13 13 12 13 13 13 13 13 13 14 14 14 15 15 15 15 14
20 20 21 21 20 19 19 18 18 18 18 18 19 19 17 17 17 16 16 15 15 15 14 13 13 14 14 14 13 13 13 13 14 14 13 13 14 14 14 14 15 15 15 14 15 15 16 15 15
20 20 20 21 20 19 19 19 19 19 19 20 20 20 19 18 18 18 18 17 16 16 15 15 15 15 15 15 14 14 14 14 15 15 15 15 15 15 15 14 14 15 15 16 15 16 16 16 16
20 20 20 20 19 19 19 19 19 19 19 20 19 19 19 19 19 19 19 18 18 17 16 16 16 15 16 16 16 16 16 16 16 15 16 16 16 16 15 15 15 15 16 16 16 16 16 17 17
19 19 19 19 19 18 18 18 19 19 19 19 19 20 19 19 19 20 19 19 18 18 18 17 17 17 17 17 18 18 17 17 16 15 16 16 17 16 16 16 16 16 16 16 17 17 17 17 17
20 19 19 19 19 19 19 19 19 18 18 19 19 20 19 19 19 19 19 18 18 18 19 18 18 18 18 18 19 18 18 17 17 16 16 17 17 17 16 15 16 16 16 17 17 17 17 18 18
19 19 20 19 19 20 18 18 19 18 17 18 19 20 20 20 19 18 19 18 18 19 19 19 18 18 18 18 19 19 19 18 18 17 18 17 18 18 17 16 17 17 17 18 18 18 18 18 18
19 18 18 18 19 19 18 19 18 17 18 18 18 18 19 20 19 19 19 18 18 19 19 19 19 19 19 19 18 19 19 19 19 18 17 17 17 17 17 16 17 18 19 19 19 18 18 18 18
19 19 19 18 18 18 19 19 16 17 17 17 17 18 18 19 20 20 20 19 18 19 19 19 19 19 19 19 19 19 19 19 19 18 17 16 15 16 17 17 17 17 18 18 19 19 19 19 19
19 19 19 19 18 18 18 18 16 15 16 16 17 17 17 18 19 20 20 19 19 19 20 20 19 20 20 20 20 20 19 19 19 18 17 17 16 16 16 17 16 16 17 17 17 17 18 18 19
20 20 19 19 18 17 17 17 15 15 15 16 16 17 17 17 19 20 19 18 20 20 21 21 21 21 21 21 20 20 20 19 18 18 17 17 17 17 17 17 16 16 16 16 17 17 17 18 18
21 21 21 20 19 17 16 16 17 16 16 16 17 17 17 17 19 20 19 19 19 20 21 21 21 21 21 21 21 21 21 20 18 18 18 19 19 18 18 16 16 16 16 16 16 17 18 18 18
22 21 21 21 20 18 17 18 17 17 18 18 18 18 18 19 20 20 19 20 19 20 20 21 20 21 21 21 21 21 20 19 19 18 19 19 19 18 16 16 16 16 16 16 16 16 17 18 19
Wind_Direction
200 199 178 152 98 111 251 268 210 89 47 37 42 49 57 46 45 38 37 36 34 38 28 25 31 31 28 27 27 28 46 54 60 70 84 96 89 97 121 134 154 166 168 178 189 199 201 208 211
214 217 205 183 145 237 256 256 250 294 346 5 15 18 23 16 31 32 32 28 20 22 17 13 16 17 8 6 14 5 26 44 56 58 62 83 81 77 128 144 171 183 187 194 201 209 214 214 220
227 227 219 199 214 230 248 243 248 256 287 315 335 344 351 359 10 19 24 19 9 8 10 9 2 358 348 349 358 335 322 314 345 355 11 62 149 147 167 204 212 219 223 224 222 225 221 220 223
232 230 226 225 239 240 244 240 240 237 258 278 294 310 325 335 348 1 9 6 3 359 2 10 1 350 339 336 336 329 305 297 298 314 310 297 269 262 262 253 246 241 239 236 236 239 237 230 225
233 231 232 241 247 251 243 240 244 256 258 267 277 291 302 311 323 343 352 354 357 358 355 353 349 340 334 327 326 321 301 294 293 294 301 296 288 283 278 273 266 253 243 242 243 244 242 236 228
234 230 232 242 249 250 245 247 254 265 262 263 264 271 284 290 295 318 334 342 347 345 341 338 338 336 333 332 318 304 285 281 297 297 299 304 299 290 282 277 272 254 241 239 240 244 239 231 224
232 227 228 238 250 255 252 253 259 262 265 259 257 264 278 281 283 300 311 318 321 324 330 330 329 326 325 326 317 306 286 279 286 288 292 296 297 293 288 280 279 261 249 241 240 242 241 234 227
233 233 234 237 247 257 256 256 260 268 266 261 257 260 261 278 281 288 298 305 312 315 319 325 329 329 327 324 318 309 300 290 288 284 286 288 290 289 286 281 289 274 250 244 241 242 240 235 235
234 234 236 239 244 253 257 257 261 265 262 263 259 257 262 273 274 280 290 294 302 308 311 315 320 324 322 317 315 311 304 297 292 289 286 281 279 279 278 275 272 268 259 248 243 240 237 237 236
236 235 237 241 245 253 256 255 256 259 263 265 261 260 263 265 268 275 282 288 297 302 304 306 313 318 313 306 307 306 302 299 293 287 284 281 280 279 275 274 271 266 262 252 247 245 240 236 236
237 237 242 245 249 253 256 256 255 257 261 262 260 262 263 265 265 268 274 279 287 292 297 302 308 312 307 299 300 300 294 295 289 284 284 283 276 273 272 270 265 264 263 255 253 251 248 243 241
241 243 245 249 251 253 255 257 257 258 260 258 257 258 264 260 259 263 267 272 280 285 290 296 303 305 303 297 296 292 295 296 292 289 286 283 276 273 266 264 263 260 257 255 256 251 246 243 242
244 247 249 250 251 253 255 258 260 260 258 259 256 257 258 260 258 260 264 269 274 279 282 289 296 300 302 297 291 288 287 291 291 287 284 282 279 273 265 267 262 259 253 253 253 254 248 245 245
244 247 248 250 251 255 258 260 262 261 258 263 262 258 256 260 261 261 263 269 272 275 279 286 294 299 301 298 293 295 293 287 285 287 283 281 279 274 268 266 266 261 257 255 253 253 251 248 249
242 245 248 252 253 257 261 261 264 260 260 263 262 258 255 259 260 258 259 265 270 275 279 284 292 296 298 297 295 297 293 289 282 280 280 278 277 275 269 267 266 264 261 258 256 254 252 250 252
241 244 248 251 254 258 259 261 261 260 262 264 264 260 257 260 261 259 259 263 268 272 276 284 289 292 295 294 291 293 294 291 282 276 274 277 279 278 273 269 266 265 263 259 256 254 252 253 254
242 244 246 250 254 257 257 260 263 261 261 263 263 261 259 261 260 260 261 263 267 269 273 281 287 292 294 294 290 292 292 290 285 282 275 275 277 277 275 272 268 266 265 260 255 255 254 255 256
242 244 247 251 254 255 259 262 264 263 262 262 261 260 260 261 261 261 261 263 266 269 274 283 286 289 291 291 291 291 290 290 287 281 279 276 276 276 274 272 269 267 267 262 258 256 256 256 257
242 244 248 251 254 256 260 263 264 265 264 262 260 259 259 260 260 261 262 265 269 270 272 278 284 289 290 291 290 289 288 291 292 286 281 279 276 276 276 273 270 268 266 264 258 256 257 258 258
244 246 250 254 255 258 261 262 264 265 264 262 260 259 257 259 259 258 262 266 269 271 272 275 279 284 289 291 288 288 288 289 290 288 283 279 277 275 275 274 272 268 266 265 262 259 259 260 260
245 247 250 253 256 260 262 262 264 265 263 261 259 258 257 258 259 259 258 262 267 270 271 272 276 281 285 286 285 287 288 288 287 287 285 279 276 273 273 272 271 269 267 267 265 263 261 262 262
247 247 250 251 255 260 261 265 263 261 261 258 256 257 258 258 259 259 257 259 263 265 266 270 273 277 282 284 286 288 288 288 285 287 287 280 275 272 272 271 270 269 268 267 266 263 261 263 265
244 245 249 252 256 259 262 263 263 263 259 256 256 258 258 258 259 257 253 255 260 263 266 271 273 276 280 283 286 286 287 289 288 287 285 280 274 271 272 270 269 270 269 269 268 264 262 263 264
243 246 252 256 259 261 261 261 262 262 260 259 257 258 258 257 258 256 254 256 259 262 266 270 272 276 280 283 285 287 287 286 285 289 287 284 279 274 273 274 272 271 269 269 267 263 262 262 264
243 246 252 257 260 263 261 261 261 259 259 259 258 256 255 255 255 254 255 257 259 261 264 268 271 275 279 282 284 285 287 286 286 291 290 285 283 280 276 276 274 272 269 267 264 262 261 261 262
245 244 247 253 258 261 261 263 261 260 260 259 254 253 254 253 253 253 256 257 259 262 265 266 270 273 277 280 281 282 284 287 288 289 290 284 283 284 277 274 276 274 270 267 263 260 260 261 261
244 245 248 253 256 260 262 261 261 259 260 260 255 252 252 252 252 253 256 257 260 262 264 266 270 273 275 277 279 280 282 285 288 289 291 288 282 282 280 276 276 274 270 268 264 261 259 259 259
243 246 248 251 256 261 265 263 259 257 259 257 252 252 253 253 252 252 255 259 260 262 263 265 270 273 273 275 278 281 282 282 286 288 291 293 290 286 284 278 275 273 272 269 266 263 261 260 259
243 243 246 250 253 259 265 262 258 257 259 258 254 254 255 254 253 253 255 260 263 261 261 264 270 272 273 275 277 279 282 281 282 285 288 293 294 290 286 282 275 273 273 270 268 265 262 260 259
247 249 247 250 254 256 258 261 262 260 258 257 257 257 257 258 257 258 262 263 263 262 262 263 269 271 272 274 277 279 280 279 279 282 285 288 290 289 285 282 276 274 273 271 267 265 262 260 260
Height
5895 5896 5897 5898 5900 5902 5901 5900 5900 5900 5899 5899 5898 5897 5897 5897 5897 5898 5895 5893 5892 5891 5890 5889 5889 5888 5887 5886 5885 5885 5884 5884 5883 5883 5882 5882 5882 5881 5881 5881 5881 5881 5881 5881 5881 5881 5882 5882 5883
5895 5896 5897 5898 5900 5901 5901 5900 5899 5899 5898 5898 5897 5897 5896 5896 5895 5895 5893 5893 5892 5891 5890 5889 5888 5888 5887 5886 5885 5884 5884 5883 5883 5882 5882 5882 5881 5881 5881 5881 5880 5880 5880 5880 5880 5881 5881 5882 5882
5894 5895 5897 5898 5899 5900 5900 5899 5898 5898 5897 5897 5897 5896 5896 5895 5895 5894 5893 5892 5892 5891 5890 5889 5888 5887 5886 5886 5885 5884 5883 5883 5882 5882 5881 5881 5881 5880 5880 5880 5880 5879 5879 5880 5880 5880 5880 5881 5881
5893 5895 5896 5898 5898 5898 5898 5898 5897 5897 5897 5896 5896 5896 5895 5895 5894 5893 5892 5892 5891 5890 5889 5888 5888 5887 5886 5885 5884 5883 5882 5882 5882 5881 5881 5880 5880 5880 5879 5879 5879 5879 5879 5879 5879 5879 5879 5880 5880
5892 5894 5896 5897 5896 5896 5896 5896 5896 5896 5896 5895 5895 5895 5894 5894 5893 5892 5892 5891 5890 5889 5889 5888 5887 5886 5885 5884 5883 5882 5882 5881 5881 5880 5880 5879 5879 5878 5878 5878 5878 5878 5877 5877 5878 5878 5878 5878 5879
5891 5893 5895 5895 5895 5895 5894 5894 5894 5894 5894 5894 5894 5894 5893 5893 5892 5892 5891 5890 5889 5889 5888 5887 5886 5885 5884 5883 5881 5881 5880 5880 5880 5879 5879 5878 5878 5877 5877 5877 5876 5876 5876 5876 5876 5877 5877 5877 5877
5890 5891 5893 5893 5893 5893 5893 5893 5893 5893 5893 5893 5893 5892 5892 5891 5891 5891 5890 5889 5888 5888 5887 5886 5885 5884 5883 5882 5880 5880 5879 5879 5878 5878 5877 5877 5877 5876 5876 5875 5875 5875 5875 5875 5875 5875 5875 5875 5876
5887 5889 5890 5891 5891 5891 5891 5891 5891 5891 5892 5891 5892 5891 5891 5890 5890 5889 5888 5888 5887 5886 5886 5885 5884 5882 5881 5880 5879 5879 5878 5878 5877 5877 5876 5875 5875 5874 5874 5874 5874 5873 5873 5873 5873 5874 5874 5874 5875
5884 5888 5888 5889 5889 5889 5889 5889 5889 5889 5889 5889 5889 5890 5889 5888 5888 5888 5887 5887 5886 5885 5885 5884 5883 5881 5880 5879 5878 5878 5877 5876 5875 5875 5874 5874 5873 5873 5873 5872 5872 5872 5872 5872 5872 5872 5872 5872 5872
5882 5885 5885 5886 5886 5886 5886 5887 5887 5887 5887 5887 5887 5887 5887 5886 5886 5886 5886 5885 5885 5884 5884 5882 5881 5880 5879 5878 5877 5876 5875 5874 5874 5873 5873 5872 5871 5871 5871 5871 5870 5870 5870 5870 5870 5870 5870 5871 5871
5879 5881 5882 5882 5883 5883 5884 5884 5884 5885 5885 5885 5885 5885 5885 5885 5884 5884 5884 5884 5883 5883 5882 5881 5880 5879 5878 5877 5875 5874 5874 5873 5872 5871 5871 5870 5870 5869 5869 5869 5868 5868 5868 5868 5868 5868 5868 5869 5870
5876 5878 5878 5879 5880 5880 5881 5881 5881 5882 5883 5883 5883 5883 5883 5883 5882 5882 5882 5882 5881 5881 5880 5879 5878 5877 5876 5875 5874 5873 5872 5871 5870 5869 5869 5868 5868 5867 5867 5867 5867 5866 5866 5866 5866 5866 5867 5867 5868
5873 5874 5875 5876 5877 5877 5878 5878 5879 5879 5880 5880 5880 5880 5880 5880 5880 5880 5880 5880 5879 5879 5878 5877 5876 5875 5874 5873 5872 5871 5870 5869 5868 5868 5867 5867 5866 5865 5865 5865 5864 5864 5864 5864 5864 5864 5864 5865 5866
5870 5871 5872 5873 5873 5874 5875 5876 5876 5877 5876 5877 5877 5877 5877 5878 5878 5878 5878 5878 5877 5877 5876 5876 5875 5873 5872 5870 5869 5869 5868 5867 5866 5865 5865 5864 5864 5863 5863 5862 5862 5862 5862 5862 5862 5862 5862 5863 5863
5866 5868 5869 5869 5870 5871 5873 5873 5873 5874 5873 5874 5874 5874 5874 5875 5875 5875 5876 5876 5875 5875 5874 5874 5873 5872 5870 5869 5868 5866 5865 5864 5864 5863 5863 5862 5862 5861 5860 5860 5860 5859 5859 5859 5860 5860 5860 5861 5861
5863 5865 5866 5867 5867 5868 5871 5871 5871 5870 5870 5871 5871 5871 5871 5872 5872 5873 5873 5873 5873 5873 5872 5871 5871 5870 5868 5867 5866 5864 5863 5862 5861 5860 5860 5860 5859 5858 5858 5857 5857 5857 5857 5857 5857 5857 5858 5858 5858
5860 5862 5863 5863 5864 5864 5866 5867 5867 5867 5867 5867 5867 5868 5868 5869 5869 5869 5870 5870 5870 5870 5869 5869 5868 5867 5866 5864 5863 5862 5861 5859 5858 5858 5857 5857 5856 5855 5855 5854 5854 5854 5854 5854 5854 5854 5855 5855 5855
5857 5858 5859 5859 5860 5861 5862 5863 5863 5863 5863 5864 5864 5864 5865 5865 5866 5866 5867 5867 5867 5867 5867 5866 5866 5864 5863 5862 5860 5859 5858 5857 5856 5855 5854 5854 5853 5852 5852 5851 5851 5851 5851 5851 5851 5851 5851 5851 5852
5852 5853 5854 5855 5855 5857 5857 5858 5859 5859 5859 5860 5860 5860 5861 5862 5862 5862 5863 5863 5864 5864 5864 5863 5863 5862 5860 5859 5858 5857 5855 5854 5853 5852 5852 5851 5850 5849 5848 5848 5848 5847 5847 5847 5847 5847 5847 5848 5848
5847 5849 5850 5851 5851 5853 5853 5854 5854 5854 5855 5855 5856 5856 5857 5858 5858 5858 5859 5860 5860 5860 5860 5860 5859 5859 5858 5856 5855 5853 5852 5851 5850 5849 5848 5847 5846 5845 5845 5844 5844 5843 5843 5843 5843 5843 5843 5843 5844
5842 5844 5845 5847 5847 5848 5849 5850 5850 5850 5850 5851 5851 5852 5852 5853 5854 5854 5855 5856 5856 5857 5857 5856 5856 5855 5855 5853 5852 5850 5849 5847 5846 5845 5844 5843 5842 5841 5840 5840 5840 5839 5839 5839 5839 5838 5839 5839 5839
5837 5839 5840 5842 5843 5844 5845 5846 5846 5846 5846 5846 5847 5847 5848 5849 5849 5850 5850 5851 5852 5852 5852 5852 5852 5852 5851 5850 5849 5847 5845 5844 5842 5841 5840 5839 5838 5837 5836 5836 5835 5835 5834 5834 5834 5834 5834 5834 5834
5833 5834 5836 5837 5838 5839 5840 5840 5842 5841 5841 5842 5842 5842 5843 5843 5844 5845 5846 5846 5847 5848 5848 5848 5848 5848 5847 5846 5845 5843 5842 5840 5838 5837 5836 5834 5833 5833 5831 5831 5830 5830 5829 5829 5829 5828 5829 5829 5829
5827 5830 5831 5832 5833 5834 5835 5836 5836 5836 5836 5836 5837 5837 5838 5838 5839 5840 5841 5841 5842 5843 5843 5844 5844 5843 5843 5842 5841 5839 5838 5836 5834 5833 5831 5830 5829 5828 5826 5826 5825 5825 5824 5824 5823 5823 5823 5823 5823
5823 5826 5827 5828 5829 5830 5830 5830 5832 5831 5831 5831 5832 5832 5832 5833 5834 5835 5835 5836 5838 5838 5839 5839 5839 5839 5838 5837 5836 5835 5834 5832 5830 5828 5826 5825 5824 5822 5821 5820 5819 5819 5818 5818 5817 5817 5818 5818 5818
5818 5821 5824 5825 5826 5827 5825 5825 5827 5826 5826 5826 5826 5827 5827 5828 5829 5829 5830 5832 5832 5833 5833 5834 5834 5834 5833 5833 5832 5831 5829 5828 5826 5824 5822 5821 5819 5817 5816 5815 5813 5812 5812 5811 5811 5811 5812 5812 5812
5813 5815 5817 5819 5820 5821 5821 5821 5822 5821 5821 5821 5822 5822 5822 5823 5824 5824 5825 5826 5827 5828 5828 5829 5829 5829 5828 5827 5826 5825 5824 5823 5822 5820 5818 5816 5815 5813 5811 5809 5808 5807 5806 5805 5805 5806 5806 5806 5807
5808 5810 5811 5813 5814 5815 5816 5817 5817 5817 5817 5817 5817 5817 5818 5818 5819 5819 5820 5821 5822 5822 5823 5823 5823 5823 5823 5822 5821 5820 5819 5818 5817 5816 5814 5812 5810 5808 5806 5804 5803 5802 5801 5800 5800 5800 5801 5801 5801
5802 5804 5805 5807 5809 5811 5812 5815 5812 5812 5812 5812 5813 5813 5813 5814 5814 5814 5815 5816 5816 5817 5817 5818 5818 5817 5817 5817 5816 5815 5814 5813 5812 5810 5809 5807 5805 5803 5801 5799 5798 5796 5795 5795 5795 5795 5795 5795 5796
5796 5797 5799 5802 5803 5804 5807 5810 5806 5806 5807 5807 5807 5808 5808 5809 5809 5810 5810 5811 5811 5811 5812 5812 5812 5812 5812 5811 5810 5810 5809 5808 5806 5805 5804 5802 5800 5798 5796 5794 5792 5791 5790 5790 5789 5789 5789 5790 5790